STARLINK-11609, 63132

Orbit data source: Space-Track

STARLINK-11609, 63132 is a payload satellite owned by SpaceX/Seattle (US) in LEO that was launched on Mon, 03 Mar 2025 UTC via an FALCON 9 launch vehicle from the Air Force Eastern Test Range (AFETR). Payload-class satellites include a variety of spacecraft equipped with specific instruments for various scientific and technological missions. These include communications satellites like Starlink; space stations such as the ISS; scientific satellites like the Hubble; Earth observation satellites from companies like Planet Labs, Umbra, and HawkEye 360; GPS; miniature CubeSats for education and research; and military/defense satellites.

Loading next visibility...
Identifier
63132, 2025-043A
Orbit
LEO
Country
Flag of USUS
Related business
Manufacturer
SpaceX/Seattle
Mission
Operational Commercial Communications
Bus & Motor
STARLINK V2MD, Unknown motor
Mass
960 kg wet, ~910 kg dry
Launch date (UTC)
2025-03-03 (1 year ago)
Launch vehicle
FALCON 9
Launch site
Air Force Eastern Test Range (AFETR)
Object type
Payload
Rocket body
Debris
Shape & HBR
Box + 2 Pan, 18.1 m
Radar Cross Section
36.964 m², Large (>1 m²)

Expand to show TLE details & history
Last TLE update: 22 hours ago

TLE from 22 hours ago
0 STARLINK-11609
1 63132U 25043A   26170.94879693  .00203284  00000-0  15456-2 0  9992
2 63132  42.9993 354.4399 0001639 256.9726 103.0959 15.70896582 75545
Epoch: 2026-06-19T22:46Z
TLE epoch observation values (Epoch: 2026-06-19T22:46:16.054Z)
Latitude
-0.00001°
Longitude
104.70255°
Altitude
356.355 km
Speed
7.697 km/s
True Right ascension
23h 37m 45s
True Declination
0° 00' 00"
Sunlit
Object was in daylight at epoch
Visualization orbit readout
Latitude
Unknown
Longitude
Unknown
Altitude
Unknown
Speed
Unknown
Apparent Right ascension
Unknown
Apparent Declination
Unknown
Sunlit
N/A
Visualization observer readout
Local Sidereal Time
07:23:42
Azimuth
Unknown
Elevation
Unknown
Doppler factor
Unknown
Orbital elements
Apogee altitude
359.419 km
Perigee altitude
357.211 km
Semi-major axis
6,736.452 km
Eccentricity
0.00016
Inclination
42.9993°
RAAN
354.4399°
Arg. of periapsis
256.9726°
True anomaly
103.11419°
Mean anomaly
103.0959°
Eccentric anomaly
103.10505°
Mean motion
3.92551 °/min
Orbital period
91.71 mins
BSTAR
0.0015456
Loading maneuver chart data...
Computing Atmospheric mass density...
Loading historical data...
Loading historical data...
Loading historical data...
Loading historical data...
Loading historical data...
Loading historical data...
Loading historical data...

Documentation

Showing up to 5 results
|